Location: Beetenbrück
(52.8113°N, 9.5946°E)
Time: 22:37:56
(UTC+00:00)

USA 229 - Pass Details

Date: 14 April 2026
Orbit: 843 x 1365 km, 63.4° (Epoch: 10 January)

Event Time Altitude Azimuth Distance (km) Brightness Sun altitude
Rises 23:38:39 0° 309° (NW) 3,862 7.1 -27.4°
Reaches altitude 10° 23:41:13 10° 313° (NW) 2,977 6.5 -27.4°
Maximum altitude 23:48:21 63° 34° (NE) 1,338 4.3 -27.2°
Drops below altitude 10° 23:56:22 10° 116° (ESE) 3,322 6.1 -27.1°
Sets 23:59:22 0° 119° (ESE) 4,335 6.7 -27.0°
